Location: Unspecified
(58.9933°N, 5.6375°E)
Time: 01:38:56
(UTC+02:00)

Cosmos 2058 - Pass Details

Date: 24 January 2018
Orbit: 563 x 584 km, 82.5° (Epoch: 27 May)

Event Time Altitude Azimuth Distance (km) Brightness Sun altitude
Exits shadow 04:13:15 15° 77° (ENE) 1,606 5.8 -36.1°
Drops below altitude 10° 04:14:42 10° 96° (E) 1,909 6.2 -35.9°
Sets 04:17:33 0° 117° (ESE) 2,801 6.9 -35.6°
